Regional Weather Roundup
Issued by NWS Albany, NY

Home | Current Version | Previous Version | Text Only | Print | Product List | Glossary On
Versions: 1 2 3 4 5 6 7 8 9 10 11 12 13 14 15 16 17 18 19 20 21 22 23 24 25 26 27
000
ASUS41 KALY 100510
RWRALY

NEW YORK STATE HOURLY WEATHER ROUNDUP
NATIONAL WEATHER SERVICE ALBANY NY
1200 AM EST SAT DEC 10 2016

NOTE: "FAIR" INDICATES FEW OR NO CLOUDS BELOW 12,000 FEET WITH NO
SIGNIFICANT WEATHER AND/OR NO OBSTRUCTIONS TO VISIBILITY.

NYZ032-033-038>043-046>054-057>066-NYZ062>081-082-084-100600-
EAST


CITY           SKY/WX    TMP DP  RH WIND       PRES   REMARKS
ALBANY         PTCLDY    19  11  70 W6        30.26S WCI  11
GLENS FALLS    PTCLDY    23   6  48 NW6       30.25S WCI  16
POUGHKEEPSIE   MOCLDY    23  13  65 W5        30.26S WCI  17
NEWBURGH       CLEAR     21  16  79 W12       30.26S WCI   9
MONTGOMERY     CLEAR     23  14  68 VRB3      30.25F
WHITE PLAINS   CLEAR     27  14  58 NW13G22   30.23F WCI  16
ISLIP          CLEAR     28  13  53 NW10      30.24F WCI  19
NEW YORK CITY  CLEAR     32  15  49 NW14      30.28F WCI  22
CENTRAL PARK   CLEAR     30  13  49 W8        30.29F WCI  22
$$

NYZ005>009-017-018-044>046-055-056-100600-
CENTRAL


CITY           SKY/WX    TMP DP  RH WIND       PRES   REMARKS
FULTON         CLOUDY    24  11  57 NW10      30.29R WCI  14
SYRACUSE       FLURRIES  23  17  78 W10       30.29R WCI  12
ROME           PTCLDY    11   7  84 CALM      30.29S
ELMIRA         CLOUDY    24  13  62 NW3       30.27S
BINGHAMTON     SNOW      20  19  96 W5        30.20S VSB 1/2 WCI  13
MONTICELLO     PTCLDY    18  12  79 W6        30.21S WCI   9
$$

NYZ026>034-041>043-087-100600-
NORTH


CITY           SKY/WX    TMP DP  RH WIND       PRES   REMARKS
WATERTOWN      CLOUDY    22  14  71 N8        30.29S WCI  12
FORT DRUM      NOT AVBL
OGDENSBURG     FAIR      18  14  83 W9        30.28S WCI   7
MASSENA        CLOUDY    20  11  68 W7        30.28R WCI  11
SARANAC LAKE   CLOUDY    11   7  84 SW5       30.13R WCI   3
PLATTSBURGH    CLOUDY    21   4  47 NW5       30.23S WCI  15
$$

NYZ001>004-010>016-019>021-085-100600-
WEST


CITY           SKY/WX    TMP DP  RH WIND       PRES   REMARKS
NIAGARA FALLS  CLOUDY    25  17  72 NW7       30.32R WCI  17
BUFFALO        MOCLDY    26  18  71 W8        30.31S WCI  18
DUNKIRK        FLURRIES  29  20  69 NW12G24   30.32S WCI  19
JAMESTOWN      CLOUDY    23  19  86 SW7       30.25S VSB 3/4 WCI  15
WELLSVILLE     LGT SNOW  23  18  81 NW10      30.22S VSB 3/4 WCI  12
ROCHESTER      MOCLDY    25  16  68 NW5       30.31S WCI  19
PENN YAN       LGT SNOW  25  19  78 NW5       30.28S WCI  19
$$

             KEY
       WCI = WIND CHILL INDEX
       VSB = VISIBILITY
       HX  = HEAT INDEX
$$




USA.gov is the U.S. government's official web portal to all federal, state and local government web resources and services.